Simultaneous Nadir Overpasses (SNOs) Predictions

Prediction of SNOs between LANDSAT-8 and METOP-B Satellite Orbit:

Table of predicted SNOs for the next 14.0 days since TLE Epoch: 7/21/2023
Index Date (LANDSAT-8) Time (LANDSAT-8) Lat,Lon (LANDSAT-8) SZA (LANDSAT-8 ) Date (METOP-B) Time (METOP-B) Lat,Lon (METOP-B) SZA (METOP-B ) Distance(km) Time Diff (sec)
1 07/22/2023 14:43:41 -81.21,-179.43 116.91 07/22/2023 14:43:38 -81.21,-179.48 116.92 0.94 3
2 07/22/2023 15:33:07 81.22, -11.66 63.12 07/22/2023 15:34:17 81.23, -11.53 63.17 2.56 70
3 07/25/2023 10:17:59 -81.22,-112.98 116.33 07/25/2023 10:17:57 -81.21,-113.13 116.34 2.56 2
4 07/25/2023 11:07:24 81.24, 55.13 63.75 07/25/2023 11:08:35 81.24, 55.19 63.79 1.24 71
5 07/28/2023 05:03:18 80.46, 136.02 62.75 07/28/2023 05:02:05 80.71, 134.89 62.85 34.57 73
6 07/28/2023 05:52:17 -81.21, -46.69 115.72 07/28/2023 05:52:16 -81.21, -46.85 115.74 2.80 1
7 07/28/2023 06:41:42 81.23, 121.39 64.35 07/28/2023 06:42:54 81.23, 121.45 64.39 1.11 72
8 07/31/2023 00:37:07 81.19,-148.20 64.90 07/31/2023 00:35:54 81.19,-148.36 64.85 2.76 73
9 07/31/2023 01:26:33 -81.21, 19.82 115.04 07/31/2023 01:26:33 -81.21, 19.73 115.05 1.57 0
10 07/31/2023 02:15:58 81.24,-172.13 65.03 07/31/2023 02:17:11 81.24,-171.98 65.08 2.55 73
11 08/02/2023 20:11:23 81.20, -81.50 65.64 08/02/2023 20:10:11 81.20, -81.49 65.61 0.21 72
12 08/02/2023 21:00:49 -81.23, 86.55 114.29 08/02/2023 21:00:50 -81.23, 86.62 114.29 1.22 1



Historial Predications of SNOs between LANDSAT-8 and METOP-B
